Location: Cuzcurrita-R�o Tir�n
(42.5415°N, 2.9642°W)
Time: 19:05:56
(UTC+00:00)

Cosmos 2058 Rocket - Pass Details

Date: 17 January 2021
Orbit: 611 x 639 km, 82.5° (Epoch: 03 March)

Event Time Altitude Azimuth Distance (km) Brightness Sun altitude
Rises 18:02:59 0° 3° (N) 2,937 6.3 -10.4°
Reaches altitude 10° 18:05:31 10° 15° (NNE) 2,028 5.4 -10.8°
Maximum altitude 18:09:21 27° 74° (ENE) 1,227 4.0 -11.5°
Drops below altitude 10° 18:13:11 10° 132° (SE) 2,023 5.4 -12.2°
Sets 18:15:42 0° 145° (SE) 2,928 6.3 -12.6°
